TimeCST,TemperatureF,Dew PointF,Humidity,Sea Level PressureIn,VisibilityMPH,Wind Direction,Wind SpeedMPH,Gust SpeedMPH,PrecipitationIn,Events,Conditions,WindDirDegrees,DateUTC
12:15 AM,21.2,19.4,93,29.70,10.0,SSW,10.4,-,N/A,,Overcast,200,2013-02-13 06:15:00
12:36 AM,21.2,19.4,93,29.70,10.0,South,11.5,-,N/A,,Overcast,190,2013-02-13 06:36:00
12:55 AM,21.2,19.4,93,29.70,10.0,SSW,10.4,-,N/A,,Overcast,200,2013-02-13 06:55:00
1:15 AM,19.4,17.6,93,29.69,10.0,SSW,9.2,-,N/A,,Scattered Clouds,200,2013-02-13 07:15:00
1:35 AM,17.6,15.8,93,29.69,10.0,South,9.2,-,N/A,,Clear,190,2013-02-13 07:35:00
1:55 AM,17.6,15.8,93,29.69,10.0,South,8.1,-,N/A,,Clear,190,2013-02-13 07:55:00
2:15 AM,15.8,15.8,100,29.69,10.0,South,10.4,-,N/A,,Scattered Clouds,190,2013-02-13 08:15:00
2:36 AM,17.6,15.8,93,29.69,10.0,South,9.2,-,N/A,,Overcast,190,2013-02-13 08:36:00
2:55 AM,17.6,15.8,93,29.68,10.0,South,6.9,-,N/A,,Mostly Cloudy,190,2013-02-13 08:55:00
3:15 AM,15.8,14.0,93,29.68,10.0,South,6.9,-,N/A,,Scattered Clouds,180,2013-02-13 09:15:00
3:35 AM,14.0,12.2,93,29.67,10.0,South,8.1,-,N/A,,Scattered Clouds,180,2013-02-13 09:35:00
3:55 AM,12.2,10.4,92,29.67,7.0,South,9.2,-,N/A,,Clear,180,2013-02-13 09:55:00
4:15 AM,12.2,10.4,92,29.66,7.0,South,8.1,-,N/A,,Clear,180,2013-02-13 10:15:00
4:35 AM,12.2,10.4,92,29.66,7.0,South,8.1,-,N/A,,Clear,180,2013-02-13 10:35:00
4:55 AM,12.2,10.4,92,29.65,7.0,South,8.1,-,N/A,,Clear,180,2013-02-13 10:55:00
5:15 AM,12.2,10.4,92,29.65,7.0,South,6.9,-,N/A,,Clear,180,2013-02-13 11:15:00
5:35 AM,12.2,10.4,92,29.64,5.0,South,6.9,-,N/A,,Clear,180,2013-02-13 11:35:00
5:55 AM,10.4,8.6,92,29.64,5.0,South,6.9,-,N/A,,Clear,180,2013-02-13 11:55:00
6:15 AM,10.4,8.6,92,29.64,5.0,South,5.8,-,N/A,,Clear,180,2013-02-13 12:15:00
6:35 AM,10.4,8.6,92,29.63,4.0,South,6.9,-,N/A,,Clear,190,2013-02-13 12:35:00
6:55 AM,8.6,8.6,100,29.63,4.0,South,6.9,-,N/A,,Clear,190,2013-02-13 12:55:00
7:15 AM,10.4,8.6,92,29.63,3.0,Calm,Calm,-,N/A,,Clear,0,2013-02-13 13:15:00
7:35 AM,8.6,6.8,92,29.63,1.0,Calm,Calm,-,N/A,,Mist,0,2013-02-13 13:35:00
7:55 AM,8.6,6.8,92,29.63,0.2,South,4.6,-,N/A,Fog,Light Freezing Fog,190,2013-02-13 13:55:00
8:15 AM,10.4,10.4,100,29.63,0.2,Calm,Calm,-,N/A,Fog,Light Freezing Fog,0,2013-02-13 14:15:00
8:35 AM,12.2,10.4,92,29.63,1.8,Calm,Calm,-,N/A,,Overcast,0,2013-02-13 14:35:00
8:55 AM,14.0,12.2,93,29.63,3.0,South,5.8,-,N/A,,Overcast,170,2013-02-13 14:55:00
9:15 AM,15.8,14.0,93,29.63,4.0,South,4.6,-,N/A,,Overcast,180,2013-02-13 15:15:00
9:35 AM,17.6,15.8,93,29.62,3.0,Calm,Calm,-,N/A,,Overcast,0,2013-02-13 15:35:00
9:55 AM,19.4,17.6,93,29.62,3.0,Calm,Calm,-,N/A,,Overcast,0,2013-02-13 15:55:00
10:15 AM,19.4,17.6,93,29.62,4.0,Calm,Calm,-,N/A,,Overcast,0,2013-02-13 16:15:00
10:35 AM,21.2,19.4,93,29.62,4.0,SSE,4.6,-,N/A,,Scattered Clouds,160,2013-02-13 16:35:00
10:55 AM,21.2,17.6,86,29.62,4.0,South,5.8,-,N/A,,Clear,170,2013-02-13 16:55:00
11:15 AM,23.0,19.4,86,29.62,5.0,Calm,Calm,-,N/A,,Clear,0,2013-02-13 17:15:00
11:35 AM,24.8,19.4,80,29.62,5.0,Calm,Calm,-,N/A,,Clear,0,2013-02-13 17:35:00
11:55 AM,26.6,19.4,74,29.61,5.0,Calm,Calm,-,N/A,,Haze,0,2013-02-13 17:55:00
12:15 PM,28.4,23.0,80,29.60,7.0,Calm,Calm,-,N/A,,Clear,0,2013-02-13 18:15:00
12:35 PM,30.2,21.2,69,29.59,7.0,Calm,Calm,-,N/A,,Clear,0,2013-02-13 18:35:00
12:55 PM,32.0,21.2,64,29.59,7.0,Calm,Calm,-,N/A,,Clear,0,2013-02-13 18:55:00
1:15 PM,30.2,19.4,64,29.59,10.0,Calm,Calm,-,N/A,,Clear,0,2013-02-13 19:15:00
1:35 PM,28.4,19.4,69,29.59,10.0,Calm,Calm,-,N/A,,Clear,0,2013-02-13 19:35:00
1:55 PM,30.2,21.2,69,29.59,10.0,Calm,Calm,-,N/A,,Clear,0,2013-02-13 19:55:00
2:15 PM,32.0,21.2,64,29.59,10.0,Calm,Calm,-,N/A,,Clear,0,2013-02-13 20:15:00
2:35 PM,30.2,19.4,64,29.59,10.0,Calm,Calm,-,N/A,,Clear,0,2013-02-13 20:35:00
2:55 PM,30.2,19.4,64,29.59,7.0,Calm,Calm,-,N/A,,Clear,0,2013-02-13 20:55:00
3:15 PM,28.4,19.4,69,29.59,10.0,Calm,Calm,-,N/A,,Clear,0,2013-02-13 21:15:00
3:35 PM,28.4,21.2,74,29.59,10.0,Calm,Calm,-,N/A,,Clear,0,2013-02-13 21:35:00
3:55 PM,26.6,21.2,80,29.60,7.0,Calm,Calm,-,N/A,,Clear,0,2013-02-13 21:55:00
4:15 PM,24.8,19.4,80,29.61,10.0,Calm,Calm,-,N/A,,Clear,0,2013-02-13 22:15:00
4:35 PM,24.8,19.4,80,29.61,10.0,Calm,Calm,-,N/A,,Scattered Clouds,0,2013-02-13 22:35:00
4:55 PM,24.8,19.4,80,29.61,10.0,Calm,Calm,-,N/A,,Scattered Clouds,0,2013-02-13 22:55:00
5:15 PM,24.8,19.4,80,29.61,10.0,Calm,Calm,-,N/A,,Scattered Clouds,0,2013-02-13 23:15:00
5:35 PM,23.0,19.4,86,29.62,10.0,Calm,Calm,-,N/A,,Scattered Clouds,0,2013-02-13 23:35:00
5:55 PM,21.2,17.6,86,29.62,10.0,North,9.2,-,N/A,,Mostly Cloudy,360,2013-02-13 23:55:00
6:15 PM,21.2,19.4,93,29.63,10.0,North,6.9,-,N/A,,Overcast,360,2013-02-14 00:15:00
6:35 PM,21.2,19.4,93,29.64,10.0,North,6.9,-,N/A,,Mostly Cloudy,350,2013-02-14 00:35:00
6:55 PM,21.2,17.6,86,29.65,10.0,North,10.4,-,N/A,,Clear,350,2013-02-14 00:55:00
7:15 PM,19.4,17.6,93,29.65,10.0,North,8.1,-,N/A,,Clear,350,2013-02-14 01:15:00
7:35 PM,17.6,15.8,93,29.66,10.0,NNW,5.8,-,N/A,,Clear,340,2013-02-14 01:35:00
7:55 PM,15.8,14.0,93,29.67,10.0,NNW,6.9,-,N/A,,Clear,340,2013-02-14 01:55:00
8:15 PM,15.8,14.0,93,29.67,7.0,NNW,5.8,-,N/A,,Clear,340,2013-02-14 02:15:00
8:35 PM,15.8,14.0,93,29.68,7.0,NNW,4.6,-,N/A,,Clear,340,2013-02-14 02:35:00
8:55 PM,15.8,12.2,86,29.68,4.0,Calm,Calm,-,N/A,,Clear,0,2013-02-14 02:55:00
9:15 PM,14.0,12.2,93,29.69,2.5,NNW,4.6,-,N/A,,Scattered Clouds,330,2013-02-14 03:15:00
9:35 PM,14.0,12.2,93,29.69,2.5,Calm,Calm,-,N/A,,Mostly Cloudy,0,2013-02-14 03:35:00
9:55 PM,14.0,12.2,93,29.70,7.0,Calm,Calm,-,N/A,,Overcast,0,2013-02-14 03:55:00
10:15 PM,14.0,12.2,93,29.70,5.0,Calm,Calm,-,N/A,,Overcast,0,2013-02-14 04:15:00
10:35 PM,15.8,12.2,86,29.70,7.0,Calm,Calm,-,N/A,,Overcast,0,2013-02-14 04:35:00
10:55 PM,15.8,14.0,93,29.71,5.0,Calm,Calm,-,N/A,,Overcast,0,2013-02-14 04:55:00
11:15 PM,15.8,15.8,100,29.71,7.0,NW,3.5,-,N/A,,Overcast,320,2013-02-14 05:15:00
11:35 PM,17.6,15.8,93,29.72,10.0,NNW,5.8,-,N/A,,Overcast,340,2013-02-14 05:35:00
11:55 PM,15.8,14.0,93,29.73,10.0,North,5.8,-,N/A,,Mostly Cloudy,350,2013-02-14 05:55:00